Location: Spigno
(44.5500°N, 8.3333°E)
Time: 13:54:02
(UTC+00:00)

Daily predictions for brighter satellites

Satellite Brightness Start Highest point End
(mag) Time Altitude Azimuth Time Altitude Azimuth Time Altitude Azimuth
MetOp-A 4.3 19:33:57 10° SSE 19:39:18 82° WSW 19:44:42 10° NNW
STARLINK-1097 3.7 19:36:27 10° NW 19:40:36 85° NNE 19:44:45 10° ESE
STARLINK-1436 (VISORSAT) 3.2 19:40:12 10° S 19:41:45 19° SE 19:43:17 10° E
STARLINK-1450 3.2 19:40:17 10° S 19:41:50 20° SE 19:43:23 10° E
STARLINK-1392 3.2 19:40:22 10° S 19:41:55 20° SE 19:43:28 10° E
STARLINK-1399 3.2 19:40:22 10° S 19:41:55 20° SE 19:43:28 10° E
STARLINK-1398 3.2 19:40:22 10° S 19:41:56 20° SE 19:43:29 10° E
STARLINK-1393 3.2 19:40:23 10° S 19:41:56 20° SE 19:43:29 10° E
STARLINK-1395 3.2 19:40:23 10° S 19:41:56 20° SE 19:43:29 10° E
STARLINK-1394 3.2 19:40:23 10° S 19:41:56 20° SE 19:43:29 10° E
STARLINK-1415 3.2 19:40:23 10° S 19:41:56 20° SE 19:43:30 10° E
STARLINK-1414 3.2 19:40:23 10° S 19:41:56 20° SE 19:43:30 10° E
STARLINK-1396 3.2 19:40:24 10° S 19:41:57 20° SE 19:43:30 10° E
STARLINK-1397 3.2 19:40:24 10° S 19:41:57 20° SE 19:43:30 10° E
STARLINK-1416 3.2 19:40:24 10° S 19:41:57 20° SE 19:43:31 10° E
STARLINK-1404 3.2 19:40:24 10° S 19:41:57 20° SE 19:43:31 10° E
STARLINK-1401 3.2 19:40:25 10° S 19:41:57 20° SE 19:43:31 10° E
STARLINK-1419 3.2 19:40:25 10° S 19:41:58 20° SE 19:43:31 10° E
STARLINK-1408 3.2 19:40:25 10° S 19:41:58 20° SE 19:43:32 10° E
STARLINK-1453 3.2 19:40:26 10° S 19:41:59 20° SE 19:43:32 10° E
STARLINK-1417 3.2 19:40:26 10° S 19:42:00 20° SE 19:43:33 10° E
STARLINK-1402 3.2 19:40:26 10° S 19:42:00 20° SE 19:43:33 10° E
STARLINK-1437 3.2 19:40:26 10° S 19:42:00 20° SE 19:43:33 10° E
STARLINK-1420 3.2 19:40:27 10° S 19:42:00 20° SE 19:43:33 10° E
STARLINK-1413 3.2 19:40:27 10° S 19:42:01 20° SE 19:43:34 10° E
STARLINK-1406 3.2 19:40:27 10° S 19:42:01 20° SE 19:43:34 10° E
STARLINK-1458 3.2 19:40:28 10° S 19:42:01 20° SE 19:43:34 10° E
STARLINK-1460 3.2 19:40:28 10° S 19:42:01 20° SE 19:43:34 10° E
STARLINK-1422 3.1 19:40:28 10° S 19:42:01 20° SE 19:43:35 10° E
STARLINK-1440 3.1 19:40:29 10° S 19:42:02 20° SE 19:43:35 10° E
STARLINK-1445 3.1 19:40:29 10° S 19:42:03 20° SE 19:43:36 10° E
STARLINK-1443 3.1 19:40:30 10° S 19:42:03 20° SE 19:43:37 10° E
STARLINK-1446 3.1 19:40:31 10° S 19:42:04 20° SE 19:43:37 10° E
STARLINK-1454 3.1 19:40:31 10° S 19:42:04 20° SE 19:43:38 10° E
STARLINK-1457 3.1 19:40:31 10° S 19:42:04 20° SE 19:43:38 10° E
STARLINK-1456 3.1 19:40:32 10° S 19:42:05 20° SE 19:43:39 10° E
STARLINK-1451 3.1 19:40:32 10° S 19:42:05 20° SE 19:43:39 10° E
STARLINK-1447 3.1 19:40:33 10° S 19:42:06 20° SE 19:43:40 10° E
STARLINK-1455 3.1 19:40:33 10° S 19:42:06 20° SE 19:43:40 10° E
STARLINK-1442 3.1 19:40:33 10° S 19:42:06 20° SE 19:43:40 10° E
STARLINK-1449 3.1 19:40:33 10° S 19:42:06 20° SE 19:43:41 10° E
STARLINK-1448 3.1 19:40:34 10° S 19:42:07 20° SE 19:43:41 10° E
STARLINK-1441 3.1 19:40:34 10° S 19:42:07 20° SE 19:43:40 10° E
STARLINK-1405 3.1 19:40:35 10° S 19:42:08 20° SE 19:43:41 10° E
STARLINK-1423 3.1 19:40:35 10° S 19:42:08 20° SE 19:43:42 10° E
STARLINK-1421 3.1 19:40:35 10° S 19:42:08 20° SE 19:43:42 10° E
STARLINK-1410 3.1 19:40:35 10° S 19:42:08 20° SE 19:43:42 10° E
STARLINK-1407 3.1 19:40:35 10° S 19:42:08 20° SE 19:43:42 10° E
STARLINK-1400 3.1 19:40:36 10° S 19:42:08 20° SE 19:43:42 10° E
STARLINK-1439 3.1 19:40:36 10° S 19:42:09 20° SE 19:43:43 10° E
ISS -1.2 19:40:28 10° WSW 19:42:10 13° SW 19:43:53 10° SSW
STARLINK-1409 3.1 19:40:37 10° S 19:42:11 20° SE 19:43:44 10° E
STARLINK-1351 3.1 19:40:37 10° S 19:42:11 20° SE 19:43:44 10° E
STARLINK-1434 3.1 19:40:37 10° S 19:42:11 20° SE 19:43:45 10° E
STARLINK-1418 3.1 19:40:38 10° S 19:42:11 20° SE 19:43:45 10° E
STARLINK-1370 3.1 19:40:38 10° S 19:42:11 20° SE 19:43:45 10° E
STARLINK-1403 3.1 19:40:39 10° S 19:42:12 20° SE 19:43:46 10° E
STARLINK-1433 3.1 19:40:39 10° S 19:42:13 20° SE 19:43:46 10° E
STARLINK-1411 3.1 19:40:41 10° S 19:42:14 20° SE 19:43:48 10° E
STARLINK-1438 3.1 19:40:41 10° S 19:42:14 20° SE 19:43:48 10° E
STARLINK-1412 3.1 19:40:41 10° S 19:42:14 20° SE 19:43:48 10° E
STARLINK-29 4.2 19:40:25 10° S 19:43:00 22° SE 19:45:34 10° E
SJ-6B 4.1 19:41:39 10° SSW 19:45:09 38° W 19:48:41 10° NNW
STARLINK-1099 3.6 19:41:26 10° WNW 19:45:36 89° SSW 19:49:44 10° SE
Cosmos 1378 4.4 19:45:29 10° SE 19:48:28 23° E 19:51:28 10° NE
STARLINK-1104 3.6 19:46:25 10° WNW 19:50:34 83° SW 19:54:42 10° SE
DMSP B5D2-2 4.4 19:47:03 10° N 19:52:21 77° WNW 19:57:36 10° SSW
USA 186 4.3 19:50:49 10° SW 19:52:30 15° W 19:54:16 10° NW
Cosmos 1741 Rocket 4.3 19:48:58 10° NNW 19:54:10 69° WSW 19:59:21 10° S
CZ-2C R/B 4.1 19:50:47 10° N 19:55:18 70° WNW 19:59:52 10° SSW
STARLINK-1144 3.7 19:51:23 10° WNW 19:55:32 77° SW 19:59:36 10° SE
BREEZE-M DEB (TANK) 4.3 19:53:22 10° S 19:55:36 19° ESE 19:59:42 10° ENE
Meteor 1-13 Rocket 4.5 19:51:27 10° SSW 19:57:06 78° W 20:02:56 10° N
Cosmos 1110 Rocket 3.9 19:54:11 10° SSW 19:59:20 75° ESE 20:04:31 10° NNE
Spot 2 Rocket 4.0 19:55:04 10° SE 19:59:51 46° ENE 20:04:41 10° N
STARLINK-1103 3.7 19:56:22 10° WNW 20:00:30 71° SW 20:04:22 11° SE
CENTAUR R/B 3.8 19:54:24 10° NNW 20:01:59 47° NE 20:10:18 10° ESE
STARLINK-1101 3.8 20:01:21 10° WNW 20:05:28 65° SW 20:09:09 13° SE
SAR-Lupe-2 4.5 20:02:36 10° NE 20:05:50 30° E 20:09:00 10° SSE
Okean 1 Rocket 3.1 20:03:57 10° N 20:08:24 65° E 20:12:45 10° SSE
BREEZE M DEB (TANK) 3.0 20:01:16 10° WSW 20:08:42 90° N 20:11:23 10° ENE
ATLAS 3B R/B 4.2 20:03:21 10° NNW 20:08:58 27° NNE 20:14:41 10° E
CZ-2C R/B 3.4 20:04:22 10° N 20:09:55 59° WNW 20:15:23 10° SSW
STARLINK-1102 3.9 20:06:22 10° WNW 20:10:27 59° SW 20:13:57 14° SE
NOSS 2-2 (D) 3.5 20:07:09 10° SW 20:10:41 70° NW 20:14:38 10° NE
Aureole 2 Rocket 4.0 20:08:18 10° SW 20:11:05 32° WNW 20:13:45 10° N
Cosmos 1331 Rocket 4.0 20:07:00 10° SSW 20:12:09 86° ESE 20:17:23 10° NNE
SPOT 5 4.2 20:09:28 11° SE 20:13:48 31° ENE 20:18:27 10° N
STARLINK-1111 4.0 20:11:23 10° WNW 20:15:26 54° SW 20:18:45 15° SE
STARLINK-52 3.3 20:15:18 10° SSW 20:18:19 40° SE 20:21:22 10° ENE
Cosmos 1943 Rocket 2.1 20:14:43 10° SSW 20:20:11 65° ESE 20:25:45 10° NNE
STARLINK-1073 4.1 20:16:21 10° WNW 20:20:23 50° SW 20:23:31 16° SSE
SL-4 R/B 2.3 20:16:02 10° SW 20:20:42 75° SE 20:25:32 10° ENE
NOSS 3-2 (C) 4.4 20:14:27 10° NNW 20:21:51 60° NE 20:29:21 13° SE
Terra 3.2 20:19:29 12° ESE 20:22:53 25° ENE 20:26:43 10° N
Nadezhda 4 Rocket 3.9 20:19:07 10° S 20:25:14 82° E 20:31:23 10° N
STARLINK-1121 4.2 20:21:20 10° WNW 20:25:19 46° SW 20:28:16 16° SSE
SPOT 1/Viking Rocket 3.8 20:21:05 14° SSE 20:25:27 58° ENE 20:30:31 10° N
Cosmos 1302 Rocket 4.1 20:20:24 10° S 20:25:35 60° ESE 20:30:49 10° NNE
IGS 5A 3.5 20:22:49 14° SSE 20:26:16 66° ENE 20:30:25 10° N
OE (NEXTSAT) 4.2 20:24:16 10° WSW 20:27:47 82° SSE 20:31:18 10° ENE
Resurs 01 Rocket 2.6 20:25:33 10° S 20:29:47 44° W 20:34:04 10° NNW
USA 245 2.1 20:28:14 20° SSE 20:29:54 76° ENE 20:32:17 10° N
STARLINK-1106 4.4 20:26:22 10° WNW 20:30:18 42° SW 20:33:05 17° SSE
NOSS 3-4 (A) 3.9 20:25:07 10° S 20:30:25 35° ESE 20:35:58 10° NE
NOSS 3-4 (C) 3.9 20:25:14 10° S 20:30:31 35° ESE 20:36:03 10° NE
FALCON 9 DEB 3.7 20:27:35 10° SSW 20:30:43 34° SE 20:33:51 10° ENE
ATLAS CENTAUR R/B 2.5 20:28:18 14° SSE 20:31:06 25° ESE 20:34:35 10° ENE
Okean 2 3.7 20:29:57 14° SSE 20:33:17 50° E 20:37:19 10° NNE
SL-27 R/B 2.8 20:31:01 10° N 20:34:30 50° ENE 20:36:32 21° SE
STARLINK-1235 3.9 20:31:30 10° NW 20:34:45 46° NNE 20:37:20 15° E
STARLINK-1112 4.5 20:31:24 10° WNW 20:35:15 38° SW 20:37:52 18° SSE
Cosmos 1656 Rocket 4.3 20:37:43 15° SSE 20:41:46 35° ESE 20:46:47 10° NE
Cosmos 2082 Rocket 4.4 20:41:50 10° WNW 20:45:42 19° W 20:49:34 10° SW
STARLINK-60 4.0 20:43:53 10° WSW 20:46:57 47° NNW 20:50:02 10° NE
Cosmos 1544 Rocket 4.4 20:43:13 10° N 20:47:13 34° ENE 20:49:24 21° SE
CZ-4B DEB 4.3 20:47:22 25° SSE 20:49:11 81° ENE 20:52:33 10° N
Cosmos 1242 Rocket 3.1 20:48:44 25° SE 20:50:18 39° E 20:53:46 10° NNE
Cosmos 2369 Rocket 2.1 20:46:02 10° SSW 20:51:42 83° ESE 20:57:23 10° NNE
BREEZE-M DEB 2.5 20:49:52 10° WSW 20:52:14 85° NNW 20:57:39 10° ENE
Cosmos 1766 3.4 20:48:53 10° NNW 20:52:53 74° W 20:55:36 20° S
ATLAS 3B CENTAUR R/B 4.2 20:41:16 10° WSW 20:55:03 32° SSW 21:00:02 20° SSE
ATLAS 2AS CENTAUR R/B 3.1 20:50:20 10° SSW 20:58:08 64° ESE 21:06:00 10° NE
NOSS 3-2 (A) 4.3 20:52:57 10° NW 21:00:31 67° WSW 21:06:43 20° SSE
STARLINK-1212 3.2 20:58:08 10° NW 21:01:12 59° NNE 21:02:33 29° E
STARLINK-1105 3.2 20:58:37 10° NW 21:01:42 59° NNE 21:03:01 29° E
Cosmos 292 Rocket 3.7 20:57:17 10° SSW 21:02:06 80° ESE 21:06:58 10° NNE
STARLINK-1247 3.2 20:59:27 10° NW 21:02:34 60° NNE 21:03:52 30° E
ERS-1 Rocket 2.9 20:59:14 22° SSE 21:02:35 89° ENE 21:07:39 10° NNW
STARLINK-1227 3.2 20:59:57 10° NW 21:03:02 61° NNE 21:04:18 31° E
STARLINK-1338 4.3 21:03:39 28° ESE 21:03:39 28° ESE 21:06:26 10° ENE
STARLINK-1226 3.1 21:00:58 10° NW 21:04:04 62° NNE 21:05:20 31° E
STARLINK-1215 3.1 21:01:44 10° NW 21:04:50 63° NNE 21:06:03 32° ESE
STARLINK-1229 3.0 21:02:32 10° NW 21:05:30 63° NNE 21:06:32 35° E
STARLINK-1270 3.0 21:03:21 10° NW 21:06:19 64° NNE 21:07:19 36° E
STARLINK-1209 2.7 21:03:20 10° NW 21:06:27 88° NNE 21:07:22 42° ESE
BREEZE-M DEB (TANK) 3.8 20:53:41 10° WNW 21:06:28 74° SW 21:09:24 24° SE
STARLINK-1217 3.1 21:03:34 10° NW 21:06:41 66° NNE 21:07:50 34° ESE
STARLINK-1189 2.9 21:05:39 10° NW 21:08:38 67° NNE 21:09:34 39° ESE
STARLINK-1188 2.9 21:07:02 10° NW 21:10:04 69° NNE 21:10:59 40° ESE
Cosmos 1867 3.7 21:06:24 10° NNW 21:11:52 66° NE 21:15:01 25° SE
STARLINK-1371 3.9 21:12:08 35° SE 21:12:13 35° SE 21:15:46 10° ENE
STARLINK-1191 2.8 21:10:16 10° NW 21:13:21 75° NE 21:14:11 44° ESE
STARLINK-1444 4.4 21:11:57 10° W 21:13:39 23° NNW 21:15:22 10° NE
STARLINK-1452 4.4 21:11:59 10° W 21:13:39 23° NNW 21:15:21 10° NNE
STARLINK-1221 2.8 21:11:15 10° NW 21:14:20 76° NNE 21:15:08 45° ESE
USA 238 DEB 4.3 21:07:48 10° NW 21:14:49 55° WSW 21:19:44 21° S
USA 238 4.3 21:07:54 10° NW 21:14:56 55° WSW 21:19:50 22° S
Cosmos 968 Rocket 3.4 21:09:58 10° NNW 21:15:08 82° ENE 21:17:48 29° SSE
Cosmos 1092 Rocket 4.3 21:09:04 10° SSW 21:15:09 67° W 21:21:19 10° N
STARLINK-1222 2.8 21:12:16 10° NW 21:15:22 78° NNE 21:16:07 47° ESE
STARLINK-1341 3.8 21:16:01 38° SE 21:16:14 38° SE 21:19:50 10° ENE
STARLINK-1214 2.8 21:13:25 10° NW 21:16:31 80° NNE 21:17:14 49° ESE
Cosmos 1975 Rocket 3.5 21:14:15 14° SSW 21:17:57 59° W 21:22:19 10° N
STARLINK-29 3.9 21:15:47 10° WSW 21:18:56 50° NNW 21:22:05 10° NE
Cosmos 1025 Rocket 3.4 21:17:46 33° SE 21:19:14 47° E 21:23:23 10° NNE
STARLINK-1374 3.8 21:19:52 40° SSE 21:20:09 41° SE 21:23:47 10° ENE
STARLINK-1234 3.0 21:17:12 10° WNW 21:20:39 75° SW 21:21:27 48° SE
STARLINK-1228 3.1 21:18:05 10° WNW 21:21:38 74° SW 21:22:31 47° SE
STARLINK-1339 3.7 21:23:42 42° SSE 21:24:07 44° SE 21:27:47 10° ENE
COSMOS 2455 2.9 21:21:21 19° S 21:25:37 58° ESE 21:31:32 10° NE
BREEZE-M DEB (TANK) 4.1 21:11:58 10° WSW 21:28:16 71° NNW 21:32:19 10° ENE
STARLINK-1377 3.6 21:28:58 37° S 21:30:03 50° SE 21:33:52 10° ENE
STARLINK-1187 2.8 21:27:23 10° WNW 21:30:35 68° SW 21:30:51 63° S
Cosmos 1470 2.6 21:27:45 10° N 21:31:39 87° WSW 21:32:50 43° S
STARLINK-1353 3.5 21:32:52 36° SSW 21:34:10 54° SE 21:38:01 10° ENE
STARLINK-1154 4.4 21:30:35 10° NW 21:34:37 47° NNE 21:37:07 21° E
Cosmos 1674 4.4 21:36:36 20° E 21:36:36 20° E 21:39:19 10° NE
Cosmos 1726 2.9 21:33:05 10° N 21:36:37 38° ENE 21:37:13 35° E
STARLINK-1375 3.4 21:35:42 41° SSW 21:36:44 56° SE 21:40:31 10° ENE
Cosmos 1340 Rocket 3.6 21:33:22 10° N 21:37:15 41° ENE 21:38:13 35° ESE
STARLINK-1320 3.0 21:39:31 60° ENE 21:39:31 60° ENE 21:42:12 10° ENE
Thor Agena Rocket 4.1 21:34:20 10° NNE 21:39:20 40° E 21:40:50 33° SE
BREEZE-M DEB (TANK) 4.1 21:25:08 10° WNW 21:39:21 88° NNE 21:41:50 27° ESE
STARLINK-1322 2.9 21:39:49 61° ENE 21:39:49 61° ENE 21:42:31 10° ENE
STARLINK-1197 4.3 21:35:33 10° NW 21:39:36 50° NNE 21:41:53 23° E
STARLINK-1324 2.9 21:40:12 61° ENE 21:40:12 61° ENE 21:42:53 10° ENE
STARLINK-1294 3.0 21:40:31 60° ENE 21:40:31 60° ENE 21:43:10 10° ENE
STARLINK-1261 2.9 21:40:49 64° ENE 21:40:49 64° ENE 21:43:33 10° ENE
STARLINK-1325 2.9 21:41:09 64° ENE 21:41:09 64° ENE 21:43:54 10° ENE
STARLINK-1333 2.9 21:41:30 65° ENE 21:41:30 65° ENE 21:44:14 10° ENE
STARLINK-1334 2.9 21:41:49 65° ENE 21:41:49 65° ENE 21:44:34 10° ENE
STARLINK-1326 2.9 21:42:09 66° ENE 21:42:09 66° ENE 21:44:55 10° ENE
STARLINK-1323 2.9 21:42:27 67° ENE 21:42:27 67° ENE 21:45:14 10° ENE
STARLINK-1350 3.4 21:40:46 32° SSW 21:42:25 63° SE 21:46:20 10° ENE
STARLINK-1349 2.9 21:42:47 67° ENE 21:42:47 67° ENE 21:45:34 10° ENE
STARLINK-1336 2.8 21:43:06 69° ENE 21:43:06 69° ENE 21:45:54 10° ENE
STARLINK-1331 2.8 21:43:27 69° ENE 21:43:27 69° ENE 21:46:15 10° ENE
STARLINK-1344 2.8 21:43:45 70° ENE 21:43:45 70° ENE 21:46:35 10° ENE
STARLINK-1343 2.8 21:44:04 72° ENE 21:44:04 72° ENE 21:46:55 10° ENE
STARLINK-1346 2.8 21:44:17 78° ENE 21:44:17 78° ENE 21:47:16 10° ENE
STARLINK-1328 2.8 21:44:43 73° ENE 21:44:43 73° ENE 21:47:35 10° ENE
STARLINK-1198 4.2 21:40:33 10° NW 21:44:37 53° NNE 21:46:42 26° E
STARLINK-1354 2.8 21:45:05 73° ENE 21:45:05 73° ENE 21:47:57 10° ENE
RESURS DK-1 3.0 21:45:05 37° ESE 21:45:05 37° ESE 21:48:54 10° NE
STARLINK-1347 2.8 21:45:23 74° ENE 21:45:23 74° ENE 21:48:15 10° ENE
STARLINK-1357 2.8 21:45:44 75° ENE 21:45:44 75° ENE 21:48:38 10° ENE
STARLINK-1335 2.8 21:46:00 76° ENE 21:46:00 76° ENE 21:48:55 10° ENE
STARLINK-1327 2.8 21:46:23 76° ENE 21:46:23 76° ENE 21:49:18 10° ENE
STARLINK-1340 2.8 21:46:43 78° NE 21:46:43 78° NE 21:49:39 10° ENE
STARLINK-1352 3.3 21:44:45 29° SW 21:46:37 68° SE 21:50:33 10° ENE
STARLINK-1356 2.8 21:47:02 78° NE 21:47:02 78° NE 21:49:59 10° ENE
STARLINK-1345 2.8 21:47:21 79° NE 21:47:21 79° NE 21:50:19 10° ENE
STARLINK-1355 2.8 21:47:39 80° NE 21:47:39 80° NE 21:50:39 10° NE
Cosmos 1455 Rocket 4.1 21:43:38 10° NNW 21:47:38 37° W 21:49:41 23° SW
STARLINK-1321 2.8 21:47:59 80° NE 21:47:59 80° NE 21:50:58 10° NE
STARLINK-1358 2.8 21:48:21 81° NE 21:48:21 81° NE 21:51:20 10° NE
STARLINK-1332 2.8 21:48:38 81° NNE 21:48:38 81° NNE 21:51:39 10° NE
STARLINK-1348 2.8 21:48:58 82° NNE 21:48:58 82° NNE 21:51:59 10° NE
STARLINK-1330 2.8 21:49:18 82° NNE 21:49:18 82° NNE 21:52:20 10° NE
STARLINK-1363 2.8 21:49:36 83° NNE 21:49:36 83° NNE 21:52:39 10° NE
STARLINK-1199 4.1 21:45:30 10° NW 21:49:36 57° NNE 21:51:28 29° E
Meteor 2-10 3.9 21:44:36 10° N 21:49:40 76° E 21:51:31 40° SSE
STARLINK-1337 2.8 21:49:57 82° N 21:49:57 82° N 21:53:00 10° NE
STARLINK-1342 2.8 21:50:17 83° N 21:50:17 83° N 21:53:22 10° NE
STARLINK-1364 2.8 21:50:37 83° NNW 21:50:37 83° NNW 21:53:42 10° NE
STARLINK-1368 3.3 21:48:47 27° SW 21:50:49 73° SE 21:54:46 10° ENE
STARLINK-1376 2.8 21:50:56 82° NNW 21:50:56 82° NNW 21:54:01 10° NE
STARLINK-1360 2.8 21:51:14 82° NW 21:51:14 82° NW 21:54:22 10° NE
Cosmos 1953 2.3 21:47:17 10° N 21:51:16 67° E 21:51:59 53° SE
STARLINK-1361 2.8 21:51:36 82° NNW 21:51:36 82° NNW 21:54:43 10° NE
SPOT 5 4.1 21:48:42 21° SSW 21:51:42 40° W 21:56:44 10° NNW
STARLINK-1367 2.8 21:51:50 80° WNW 21:51:54 81° NNW 21:55:03 10° NE
STARLINK-1366 2.8 21:52:14 80° NW 21:52:15 81° NW 21:55:23 10° NE
CENTAUR R/B 3.5 21:45:07 10° NW 21:53:07 58° WSW 21:57:55 28° S
S3M 3.9 21:47:14 10° N 21:53:28 84° E 21:56:24 34° SSE
STARLINK-1210 4.0 21:50:29 10° NW 21:54:36 61° NNE 21:56:14 33° E
Cosmos 1503 Rocket 4.2 21:49:25 10° NNW 21:54:42 64° WSW 21:56:49 36° S
STARLINK-1369 3.3 21:52:47 25° SW 21:55:01 79° SSE 21:59:00 10° ENE
Cosmos 1271 Rocket 3.7 21:56:17 26° SW 21:58:03 44° WNW 22:01:52 10° N
STARLINK-1372 3.3 21:56:48 22° SW 21:59:16 84° SE 22:03:14 10° ENE
STARLINK-1219 3.9 21:55:28 10° NW 21:59:37 65° NNE 22:01:02 38° E
Terra 2.7 21:58:22 27° SSW 22:00:24 40° W 22:04:54 10° NNW
ATLAS 3B R/B 2.7 21:53:41 10° NW 22:00:32 88° NE 22:04:04 33° SE
SL-4 R/B 3.7 21:56:12 10° W 22:00:46 42° NNW 22:05:23 10° ENE
STARLINK-1378 3.3 21:59:49 24° SW 22:02:03 88° SE 22:05:59 10° ENE
Cosmos 2297 Rocket 4.0 21:57:50 10° N 22:02:20 24° NE 22:06:16 12° E
Cosmos 1943 Rocket 4.5 22:00:06 10° W 22:04:27 23° NW 22:08:50 10° N
Cosmos 1553 Rocket 4.3 21:58:19 10° NNW 22:04:27 60° W 22:07:36 29° SSW
STARLINK-1211 3.8 22:00:26 10° NW 22:04:35 70° NNE 22:05:48 43° E
BREEZE-M DEB (TANK) 2.6 21:56:41 10° SW 22:04:44 55° SSE 22:07:47 10° ENE
Meteor 2-8 Rocket 4.5 21:58:48 10° N 22:04:58 79° W 22:07:46 35° S
SJ 16-02 3.9 22:03:40 10° NNE 22:05:21 12° NE 22:07:02 10° ENE
STARLINK-1379 3.3 22:03:10 24° WSW 22:05:24 87° NNW 22:09:17 10° NE
Aureole 3 3.4 22:04:12 10° N 22:06:42 43° NE 22:06:42 43° NE
Cosmos 1626 4.2 22:08:17 16° E 22:08:17 16° E 22:10:15 10° NE
STARLINK-1329 3.4 22:06:16 22° WSW 22:08:39 83° NNW 22:12:34 10° NE
Cosmos 1758 4.4 22:05:33 10° NNW 22:09:19 37° W 22:10:28 30° SW
Cosmos 1707 3.6 22:08:16 32° SW 22:09:34 44° WNW 22:13:18 10° N
STARLINK-1245 3.7 22:05:25 10° NW 22:09:34 75° NNE 22:10:36 49° ESE
ATLAS CENTAUR R/B 2.7 22:05:45 10° WSW 22:09:52 39° NW 22:13:45 10° NNE
SeaSat 1 2.9 22:05:51 10° NE 22:10:31 42° ESE 22:11:04 40° SE
COSMOS 2487 2.8 22:10:26 10° NNW 22:13:45 52° WSW 22:13:45 52° WSW
STARLINK-1362 3.5 22:11:07 18° WSW 22:13:57 77° NNW 22:17:54 10° NE
STARLINK-1233 3.6 22:10:22 10° NW 22:14:32 81° NNE 22:15:22 56° ESE
Cosmos 1536 Rocket 4.3 22:16:15 30° SW 22:17:57 45° WNW 22:22:10 10° N
STARLINK-1373 3.6 22:15:16 16° WSW 22:18:18 72° NNW 22:22:14 10° NE
STARLINK-1204 3.5 22:15:21 10° NW 22:19:30 86° NNE 22:20:08 63° ESE
EO 1 Del DPAF 3.0 22:15:46 10° NNE 22:19:33 89° WNW 22:19:51 75° SSW
NOSS 3-4 (A) 4.4 22:15:21 10° WSW 22:21:05 47° NW 22:27:15 10° NNE
STARLINK-1390 3.7 22:18:23 18° WSW 22:21:09 69° NNW 22:25:01 10° NE
NOSS 3-4 (C) 4.3 22:15:26 10° WSW 22:21:11 48° NW 22:27:21 10° NNE
STARLINK-1238 3.5 22:20:20 10° WNW 22:24:30 87° SW 22:24:55 71° SE
STARLINK-1365 3.9 22:22:30 10° WSW 22:26:24 63° NNW 22:30:21 10° NE
Meteor 1-16 Rocket 4.1 22:20:59 10° NNW 22:26:25 72° W 22:28:05 44° SSW
Cosmos 2266 Rocket 3.9 22:24:05 35° SSW 22:26:46 79° W 22:32:50 10° N
Cosmos 2084 3.7 22:26:10 33° SW 22:28:06 70° NW 22:32:34 10° NE
Cosmos 1655 Rocket 4.4 22:25:20 26° SSW 22:28:52 57° WNW 22:35:04 10° N
STARLINK-1201 3.4 22:25:19 10° WNW 22:29:29 81° SW 22:29:42 77° SSE
STARLINK-1206 3.5 22:30:18 10° WNW 22:34:27 75° SW 22:34:29 75° SSW
STARLINK-1205 3.6 22:35:17 10° WNW 22:39:15 68° SW 22:39:15 68° SW
Cosmos 2227 Rocket 3.3 22:35:01 10° NNW 22:40:16 37° NE 22:43:18 22° ESE
STARLINK-1338 4.2 22:37:51 12° WSW 22:41:10 50° NNW 22:44:52 10° NE
Spot 4 4.0 22:42:23 49° SSW 22:43:24 61° WSW 22:48:13 10° NNW
Cosmos 2292 Rocket 3.9 22:44:12 37° WNW 22:44:12 37° WNW 22:47:02 10° N
STARLINK-1218 3.7 22:40:18 10° WNW 22:44:04 60° WSW 22:44:04 60° WSW
SL-14 R/B 3.9 22:44:57 42° E 22:44:57 42° E 22:48:20 10° NNE
STARLINK-1254 3.9 22:45:16 10° WNW 22:48:50 53° WSW 22:48:50 53° WSW
Cosmos 2098 Rocket 4.4 22:45:55 35° SSW 22:49:24 79° W 22:56:52 10° N
ATLAS 2AS CENTAUR R/B 4.2 22:42:08 10° WSW 22:49:36 41° NW 22:57:00 10° NNE
Cosmos 1908 3.4 22:46:01 10° NNW 22:49:45 59° W 22:49:45 59° W
Cosmos 2058 Rocket 3.3 22:45:50 10° N 22:50:15 59° E 22:50:50 54° ESE
STARLINK-1371 4.5 22:46:55 10° W 22:50:38 45° NNW 22:54:22 10° NE
Cosmos 1606 Rocket 3.5 22:46:51 10° NNW 22:51:10 68° W 22:51:37 63° SW
Meteor 2-5 Rocket 3.6 22:51:49 49° S 22:53:25 87° E 22:59:06 10° N
ALOS 2 2.4 22:53:44 70° SSE 22:54:14 89° E 22:58:40 10° NNW
STARLINK-1231 4.1 22:50:15 10° WNW 22:53:35 46° WSW 22:53:35 46° WSW
FALCON 9 R/B 4.4 22:58:56 18° ESE 22:58:56 18° ESE 23:02:24 10° ESE
KORONAS-FOTON 4.4 22:56:12 46° W 22:56:28 47° WNW 23:00:14 10° N
STARLINK-1246 4.4 22:52:32 10° NW 22:56:35 49° NNE 22:58:27 28° E
STARLINK-1232 4.3 22:55:18 10° WNW 22:58:25 41° W 22:58:25 41° W
CZ-4C R/B 2.7 22:59:36 36° ESE 22:59:38 36° ESE 23:04:48 10° NE
STARLINK-1224 4.3 22:57:31 10° NW 23:01:36 52° NNE 23:03:14 31° E
Cosmos 1300 2.9 23:01:22 10° N 23:05:03 62° ENE 23:05:03 62° ENE
Cosmos 1763 Rocket 4.5 23:05:56 30° ESE 23:06:19 30° E 23:10:43 10° NE
STARLINK-1225 4.2 23:02:29 10° NW 23:06:35 56° NNE 23:08:01 35° E
Helios 1B rocket 4.0 23:06:02 10° NE 23:09:18 24° E 23:09:18 24° E
Cosmos 1726 4.5 23:09:23 10° NW 23:11:27 14° W 23:11:43 14° W
STARLINK-1230 4.1 23:07:27 10° NW 23:11:33 59° NNE 23:12:46 40° E
Cosmos 1674 4.1 23:11:24 28° W 23:11:52 28° WNW 23:15:12 10° NNW
STARLINK-1243 3.9 23:12:26 10° NW 23:16:34 64° NNE 23:17:34 46° E
Meteor 2-14 Rocket 4.4 23:15:15 46° SSW 23:17:15 83° W 23:23:26 10° N
Cosmos 2228 4.0 23:14:18 10° NNW 23:18:08 34° W 23:18:24 34° W
Cosmos 1602 Rocket 4.3 23:18:22 38° E 23:18:35 38° E 23:22:36 10° NNE
Cosmos 921 Rocket 3.5 23:18:04 45° WSW 23:18:49 51° WNW 23:23:06 10° N
Meteor 2-21 Rocket 4.4 23:18:06 47° S 23:20:03 88° E 23:26:18 10° N
Cosmos 1437 4.0 23:22:12 38° N 23:22:12 38° N 23:24:14 10° N
STARLINK-1236 3.8 23:17:24 10° NW 23:21:33 68° NNE 23:22:21 53° E
RESURS DK-1 4.4 23:20:56 15° W 23:23:13 23° NW 23:26:34 10° N
Timation 2 Rocket 4.5 23:18:17 10° NW 23:24:03 42° WSW 23:25:18 37° SW
Lacrosse 4 Rocket 2.5 23:21:35 10° NNW 23:25:39 40° NE 23:26:58 31° E
Cosmos 1980 Rocket 3.6 23:25:34 22° ESE 23:26:27 23° E 23:30:46 10° NE
Okean 1-7 Rocket 3.9 23:25:56 51° WSW 23:26:36 56° WNW 23:31:06 10° N
BREEZE-M R/B 3.7 23:19:09 10° WSW 23:27:34 76° NNW 23:31:32 10° ENE
STARLINK-1269 3.6 23:27:22 10° NW 23:31:32 79° NNE 23:31:55 70° E
USA 215 3.4 23:26:32 10° ESE 23:33:03 73° NE 23:39:35 10° NW
Cosmos 2369 4.1 23:33:19 42° SE 23:34:21 46° ESE 23:39:44 10° NE
CZ-4 R/B 4.0 23:31:45 10° NNE 23:36:24 55° E 23:36:58 51° SE
STARLINK-1200 3.5 23:32:20 10° NW 23:36:30 84° NE 23:36:41 80° E
Helios 1A 3.2 23:38:21 56° WSW 23:38:22 56° W 23:42:30 10° NNW
Meteor 1-24 Rocket 4.1 23:36:46 38° SW 23:38:25 52° WNW 23:43:49 10° N
SL-4 R/B 4.0 23:36:49 10° WNW 23:41:18 36° N 23:45:45 10° ENE
Cosmos 1455 3.4 23:37:57 10° N 23:41:21 32° ENE 23:41:40 31° E
STARLINK-1192 3.5 23:37:19 10° WNW 23:41:28 89° W 23:41:28 89° W
Cosmos 1626 3.3 23:42:49 33° WNW 23:42:50 33° WNW 23:46:14 10° N
SJ 16-02 1.2 23:40:09 10° NNW 23:44:36 87° WSW 23:44:59 75° S
Cosmos 540 Rocket 4.4 23:44:01 32° ESE 23:44:50 33° ESE 23:49:24 10° NE
SL-16 R/B 4.4 23:40:20 10° ESE 23:45:05 24° ENE 23:49:51 10° N
STARLINK-1244 3.5 23:42:17 10° WNW 23:46:14 78° W 23:46:14 78° W
Cosmos 2297 Rocket 2.2 23:41:15 10° NNW 23:46:51 64° WSW 23:48:02 51° SSW
SeaSat 1 3.9 23:43:35 10° N 23:47:54 31° NW 23:50:50 17° WSW
Cosmos 2219 3.5 23:43:39 10° NW 23:49:05 49° WSW 23:50:00 45° SW
Cosmos 1656 3.8 23:48:16 43° SW 23:50:06 72° WNW 23:55:43 10° NNE
ATLAS 3B R/B 4.2 23:45:47 10° WNW 23:50:27 20° WSW 23:51:18 19° WSW
STARLINK-1138 3.6 23:47:15 10° WNW 23:51:00 68° W 23:51:00 68° W
Cosmos 468 Rocket 3.9 23:52:35 56° SSW 23:53:42 86° WNW 23:58:51 10° NNE
